Flag for Germany Weather past 2 weeks in Herzogenrath, North Rhine-Westphalia, Germany

Now
62 °F

Low clouds.


Feels Like: 62 °F
Forecast: 61 / 77 °F
Wind: N/A

Location: Maastricht Airport Zuid Limburg

Current Time: Jul 26, 2014 at 9:33:06 AM

Latest Report: Jul 26, 2014 at 8:00 AM


Visibility: 1 mi

Pressure: 29.94 "Hg

Humidity: 97%

Dew point: 61 °F

Location of HerzogenrathLocation

Historic Weather in Herzogenrath — Graph

°F

Herzogenrath temperature yesterday

Maximum temperature yesterday: 71 °F (at 5:00 PM)
Minimum temperature yesterday: 57 °F (at 5:00 AM)
Average temperature yesterday: 64 °F

Past Weeks' High & Low Weather Summary

 TemperatureHumidityPressure
High91 °F (Jul 18, 6:00 PM)100% (Jul 13, 11:00 PM)30.19 "Hg (Jul 13, 11:00 PM)
Low54 °F (Jul 15, 4:00 AM)32% (Jul 19, 3:00 PM)29.73 "Hg (Jul 13, 6:00 PM)
Average69 °F78%29.97 "Hg
* Reported Jul 11 8:00 AM — Jul 26 8:00 AM, Herzogenrath, Weather by CustomWeather, © 2014

Note: Actual official high and low records may vary slightly from our data, if they occured in-between our weather recording intervals... More about our weather records

Advertising

Herzogenrath weather history for previous 24 hours

 ConditionsComfort  
Time TempWeatherWind HumidityBarometerVisibility
8:00 AM
Jul 26
62 °FLow clouds.N/A97%29.94 "Hg1 mi
7:00 AM61 °FDense fog.No wind100%29.94 "Hg1 mi
6:00 AM61 °FDense fog.N/A100%29.93 "Hg0 mi
5:00 AM62 °FFog.2 mph98%29.93 "Hg1 mi
4:00 AM60 °FFog.No wind100%29.93 "Hg2 mi
3:00 AM60 °FFog.1 mph98%29.93 "Hg3 mi
2:00 AM62 °FFog.3 mph94%29.94 "Hg4 mi
1:00 AM63 °FFog.2 mph93%29.94 "Hg5 mi
12:00 AM63 °FOvercast.2 mph93%29.94 "Hg6 mi
11:00 PM
Jul 25
63 °FClear.2 mph91%29.93 "Hg8 mi
10:00 PM65 °FOvercast.3 mph86%29.93 "Hg7 mi
9:00 PM67 °FScattered clouds.3 mph81%29.92 "Hg8 mi
8:00 PM68 °FSunny.5 mph77%29.92 "Hg9 mi
7:00 PM69 °FOvercast.5 mph75%29.91 "Hg10 mi
6:00 PM70 °FOvercast.5 mph75%29.91 "Hg10 mi
5:00 PM71 °FPassing clouds.5 mph70%29.92 "Hg11 mi
4:00 PM69 °FOvercast.5 mph75%29.93 "Hg12 mi
3:00 PM69 °FOvercast.5 mph74%29.94 "Hg14 mi
2:00 PM70 °FOvercast.6 mph72%29.95 "Hg12 mi
1:00 PM69 °FOvercast.6 mph73%29.96 "Hg12 mi
12:00 PM70 °FOvercast.5 mph74%29.97 "Hg12 mi
11:00 AM68 °FScattered clouds.5 mph78%29.97 "Hg11 mi
10:00 AM64 °FOvercast.5 mph87%29.97 "Hg9 mi
9:00 AM62 °FOvercast.5 mph88%29.97 "Hg9 mi
Weather by CustomWeather, © 2014

See weather overviewHow to use our weather pages